JST112 NZWN-NZCH

Flight info

Callsign JST112
Flight time 0h 57m
Altitude 28000
Route SABDA Y622 MESIX
Aircraft A20N/M-SDE2E3FGHIRWXY/LB1

Departure

Time 2026-05-01 08:15
Airport Wellington International Airport (NZWN)

Arrival

Time 2026-05-01 09:13
Airport Christchurch International Airport (NZCH)
Time Latitude Longitude Altitude Speed Heading
2026-05-01 07:45 -41.32842 174.80985 29 ft 0 kts 65°
2026-05-01 08:08 -41.32843 174.80981 29 ft 3 kts 65°
2026-05-01 08:08 -41.32852 174.80933 29 ft 3 kts 114°
2026-05-01 08:09 -41.32821 174.80910 29 ft 2 kts 194°
2026-05-01 08:09 -41.32820 174.80910 29 ft 0 kts 192°
2026-05-01 08:11 -41.32826 174.80908 29 ft 2 kts 195°
2026-05-01 08:12 -41.32841 174.80826 29 ft 10 kts 233°
2026-05-01 08:12 -41.32906 174.80802 29 ft 10 kts 181°
2026-05-01 08:12 -41.33047 174.80795 29 ft 11 kts 183°
2026-05-01 08:13 -41.33123 174.80790 29 ft 12 kts 183°
2026-05-01 08:13 -41.33229 174.80783 29 ft 16 kts 182°
2026-05-01 08:13 -41.33457 174.80770 29 ft 14 kts 182°
2026-05-01 08:14 -41.33533 174.80754 29 ft 9 kts 207°
2026-05-01 08:14 -41.33549 174.80638 29 ft 19 kts 335°
2026-05-01 08:14 -41.33314 174.80649 30 ft 74 kts
2026-05-01 08:14 -41.32427 174.80705 60 ft 174 kts
2026-05-01 08:15 -41.31017 174.80816 433 ft 234 kts
2026-05-01 08:15 -41.26985 174.80924 1932 ft 329 kts 353°
2026-05-01 08:15 -41.24788 174.80118 3979 ft 325 kts 344°
2026-05-01 08:16 -41.22608 174.79336 5922 ft 326 kts 345°
2026-05-01 08:16 -41.20395 174.78552 7488 ft 334 kts 345°
2026-05-01 08:16 -41.18170 174.77471 8680 ft 350 kts 330°
2026-05-01 08:16 -41.16299 174.75266 9535 ft 375 kts 308°
2026-05-01 08:17 -41.15126 174.72103 10413 ft 392 kts 285°
2026-05-01 08:17 -41.14925 174.68489 11650 ft 393 kts 263°
2026-05-01 08:17 -41.15728 174.65096 13325 ft 383 kts 242°
2026-05-01 08:17 -41.17354 174.62379 14932 ft 374 kts 221°
2026-05-01 08:18 -41.19566 174.60703 16410 ft 364 kts 199°
2026-05-01 08:18 -41.24464 174.61113 18753 ft 365 kts 154°
2026-05-01 08:19 -41.28232 174.65711 20335 ft 374 kts 136°
2026-05-01 08:19 -41.30280 174.67850 21081 ft 376 kts 149°
2026-05-01 08:19 -41.32627 174.69409 21835 ft 379 kts 159°
2026-05-01 08:19 -41.35146 174.70462 22560 ft 382 kts 169°
2026-05-01 08:20 -41.37800 174.70677 23270 ft 384 kts 183°
2026-05-01 08:20 -41.40470 174.70338 23965 ft 387 kts 187°
2026-05-01 08:20 -41.43147 174.69824 24541 ft 391 kts 188°
2026-05-01 08:20 -41.45846 174.69245 25073 ft 395 kts 189°
2026-05-01 08:21 -41.48545 174.68486 25598 ft 398 kts 195°
2026-05-01 08:21 -41.51153 174.67195 26100 ft 402 kts 204°
2026-05-01 08:21 -41.53672 174.65542 26614 ft 405 kts 206°
2026-05-01 08:21 -41.56183 174.63798 27095 ft 409 kts 207°
2026-05-01 08:22 -41.58710 174.62026 27572 ft 412 kts 206°
2026-05-01 08:22 -41.61263 174.60238 27927 ft 418 kts 206°
2026-05-01 08:22 -41.63788 174.58472 28001 ft 431 kts 206°
2026-05-01 08:22 -41.66484 174.56587 27998 ft 444 kts 206°
2026-05-01 08:23 -41.69267 174.54641 27994 ft 457 kts 206°
2026-05-01 08:23 -41.72123 174.52643 27996 ft 470 kts 206°
2026-05-01 08:23 -41.75031 174.50606 27989 ft 468 kts 206°
2026-05-01 08:23 -41.77847 174.48629 27996 ft 445 kts 207°
2026-05-01 08:24 -41.80452 174.46557 28000 ft 425 kts 212°
2026-05-01 08:24 -41.82883 174.44391 27998 ft 417 kts 213°
2026-05-01 08:24 -41.85275 174.42214 27995 ft 417 kts 213°
2026-05-01 08:24 -41.87675 174.40023 27997 ft 417 kts 213°
2026-05-01 08:25 -41.90077 174.37830 27988 ft 417 kts 213°
2026-05-01 08:25 -41.92476 174.35641 27990 ft 417 kts 213°
2026-05-01 08:25 -41.94875 174.33449 27987 ft 417 kts 213°
2026-05-01 08:25 -41.97279 174.31253 27986 ft 417 kts 213°
2026-05-01 08:26 -41.99677 174.29061 27989 ft 417 kts 213°
2026-05-01 08:26 -42.02079 174.26864 27989 ft 417 kts 213°
2026-05-01 08:26 -42.04479 174.24666 27987 ft 417 kts 213°
2026-05-01 08:26 -42.06879 174.22466 27982 ft 417 kts 213°
2026-05-01 08:27 -42.09275 174.20268 27990 ft 417 kts 213°
2026-05-01 08:27 -42.11677 174.18062 27982 ft 417 kts 213°
2026-05-01 08:27 -42.14075 174.15858 27983 ft 417 kts 213°
2026-05-01 08:27 -42.16474 174.13650 27987 ft 418 kts 213°
2026-05-01 08:28 -42.18838 174.11474 27978 ft 417 kts 213°
2026-05-01 08:28 -42.23618 174.07065 27767 ft 412 kts 213°
2026-05-01 08:28 -42.25969 174.04894 27276 ft 406 kts 213°
2026-05-01 08:29 -42.28319 174.02722 26735 ft 402 kts 213°
2026-05-01 08:29 -42.30585 174.00626 26206 ft 398 kts 213°
2026-05-01 08:29 -42.32858 173.98521 25662 ft 395 kts 213°
2026-05-01 08:29 -42.35116 173.96429 25144 ft 392 kts 213°
2026-05-01 08:30 -42.37358 173.94349 24630 ft 389 kts 213°
2026-05-01 08:30 -42.39580 173.92286 24114 ft 386 kts 214°
2026-05-01 08:30 -42.41788 173.90235 23523 ft 383 kts 214°
2026-05-01 08:30 -42.43266 173.88861 23133 ft 380 kts 214°
2026-05-01 08:31 -42.45436 173.86842 22561 ft 377 kts 214°
2026-05-01 08:31 -42.48279 173.84195 21811 ft 373 kts 214°
2026-05-01 08:31 -42.49690 173.82880 21431 ft 371 kts 215°
2026-05-01 08:31 -42.51808 173.80904 20880 ft 368 kts 215°
2026-05-01 08:32 -42.53903 173.78948 20341 ft 364 kts 215°
2026-05-01 08:32 -42.55983 173.77004 19806 ft 361 kts 216°
2026-05-01 08:32 -42.58040 173.75081 19286 ft 358 kts 216°
2026-05-01 08:32 -42.60080 173.73172 18757 ft 355 kts 216°
2026-05-01 08:33 -42.62104 173.71276 18165 ft 352 kts 216°
2026-05-01 08:33 -42.64105 173.69399 17574 ft 349 kts 216°
2026-05-01 08:33 -42.66096 173.67531 16988 ft 346 kts 216°
2026-05-01 08:33 -42.68068 173.65680 16430 ft 343 kts 216°
2026-05-01 08:34 -42.70026 173.63840 15875 ft 340 kts 216°
2026-05-01 08:34 -42.71952 173.62028 15335 ft 338 kts 216°
2026-05-01 08:34 -42.73876 173.60217 14797 ft 335 kts 217°
2026-05-01 08:34 -42.75813 173.58393 14252 ft 332 kts 217°
2026-05-01 08:35 -42.77676 173.56636 13670 ft 330 kts 217°
2026-05-01 08:35 -42.79555 173.54863 13095 ft 327 kts 217°
2026-05-01 08:35 -42.81418 173.53104 12517 ft 325 kts 217°
2026-05-01 08:35 -42.83269 173.51355 11952 ft 323 kts 216°
2026-05-01 08:36 -42.85104 173.49620 11405 ft 320 kts 216°
2026-05-01 08:36 -42.86932 173.47890 11077 ft 319 kts 216°
2026-05-01 08:36 -42.88751 173.46168 10998 ft 319 kts 216°
2026-05-01 08:36 -42.90575 173.44440 10995 ft 319 kts 216°
2026-05-01 08:37 -42.92391 173.42710 10992 ft 318 kts 217°
2026-05-01 08:37 -42.94210 173.40984 10995 ft 318 kts 217°
2026-05-01 08:37 -42.96026 173.39263 10996 ft 318 kts 217°
2026-05-01 08:37 -42.97842 173.37539 10944 ft 317 kts 217°
2026-05-01 08:38 -42.99641 173.35830 10548 ft 312 kts 217°
2026-05-01 08:38 -43.01387 173.34171 10338 ft 299 kts 217°
2026-05-01 08:38 -43.03056 173.32584 10100 ft 288 kts 217°
2026-05-01 08:38 -43.04686 173.31032 9695 ft 283 kts 217°
2026-05-01 08:39 -43.06296 173.29494 9242 ft 281 kts 217°
2026-05-01 08:39 -43.07891 173.27971 8784 ft 279 kts 217°
2026-05-01 08:39 -43.09351 173.26576 8356 ft 278 kts 217°
2026-05-01 08:39 -43.10847 173.24924 7900 ft 276 kts 226°
2026-05-01 08:40 -43.13236 173.20881 7018 ft 272 kts 234°
2026-05-01 08:40 -43.14358 173.18797 6542 ft 271 kts 234°
2026-05-01 08:40 -43.15472 173.16726 6137 ft 269 kts 234°
2026-05-01 08:41 -43.16577 173.14674 5998 ft 267 kts 234°
2026-05-01 08:41 -43.17682 173.12626 5982 ft 268 kts 234°
2026-05-01 08:41 -43.18792 173.10569 5982 ft 268 kts 234°
2026-05-01 08:41 -43.19902 173.08514 5982 ft 268 kts 234°
2026-05-01 08:42 -43.21010 173.06461 5988 ft 268 kts 234°
2026-05-01 08:42 -43.22121 173.04402 5984 ft 269 kts 234°
2026-05-01 08:42 -43.23234 173.02340 5981 ft 269 kts 234°
2026-05-01 08:42 -43.24344 173.00281 5985 ft 269 kts 234°
2026-05-01 08:43 -43.25294 172.98533 5984 ft 269 kts 232°
2026-05-01 08:43 -43.26077 172.97291 5983 ft 269 kts 227°
2026-05-01 08:43 -43.27324 172.95585 5986 ft 269 kts 224°
2026-05-01 08:43 -43.28686 172.93816 5986 ft 270 kts 224°
2026-05-01 08:44 -43.30053 172.92055 5982 ft 270 kts 224°
2026-05-01 08:44 -43.31421 172.90290 5985 ft 270 kts 224°
2026-05-01 08:44 -43.32774 172.88542 5982 ft 270 kts 224°
2026-05-01 08:44 -43.34141 172.86771 5981 ft 270 kts 224°
2026-05-01 08:45 -43.35509 172.84998 5979 ft 270 kts 223°
2026-05-01 08:45 -43.36892 172.83203 5977 ft 270 kts 224°
2026-05-01 08:45 -43.38241 172.81450 5976 ft 270 kts 223°
2026-05-01 08:45 -43.39606 172.79676 5974 ft 270 kts 223°
2026-05-01 08:46 -43.40990 172.77874 5974 ft 271 kts 223°
2026-05-01 08:46 -43.42341 172.76116 5972 ft 271 kts 223°
2026-05-01 08:46 -43.43709 172.74334 5971 ft 271 kts 223°
2026-05-01 08:46 -43.45078 172.72551 5971 ft 271 kts 223°
2026-05-01 08:47 -43.46464 172.70742 5970 ft 271 kts 223°
2026-05-01 08:47 -43.47812 172.68982 5967 ft 271 kts 223°
2026-05-01 08:47 -43.49176 172.67199 5656 ft 270 kts 223°
2026-05-01 08:47 -43.50538 172.65420 5195 ft 269 kts 223°
2026-05-01 08:48 -43.51888 172.63655 4742 ft 267 kts 224°
2026-05-01 08:48 -43.53231 172.61900 4313 ft 264 kts 224°
2026-05-01 08:48 -43.54555 172.60167 4024 ft 261 kts 224°
2026-05-01 08:48 -43.55869 172.58445 3965 ft 261 kts 224°
2026-05-01 08:49 -43.57187 172.56716 3968 ft 262 kts 224°
2026-05-01 08:49 -43.58503 172.54988 3958 ft 256 kts 224°
2026-05-01 08:49 -43.59758 172.53342 3841 ft 243 kts 224°
2026-05-01 08:49 -43.60948 172.51780 3742 ft 229 kts 224°
2026-05-01 08:50 -43.62064 172.50314 3633 ft 214 kts 225°
2026-05-01 08:50 -43.63057 172.48878 3499 ft 200 kts 236°
2026-05-01 08:50 -43.63500 172.47172 3353 ft 184 kts 270°
2026-05-01 08:50 -43.63158 172.45549 3077 ft 175 kts 303°
2026-05-01 08:51 -43.62432 172.44224 2732 ft 172 kts 311°
2026-05-01 08:51 -43.61627 172.43008 2364 ft 171 kts 318°
2026-05-01 08:51 -43.60646 172.42118 2033 ft 168 kts 340°
2026-05-01 08:51 -43.59531 172.41857 1960 ft 155 kts
2026-05-01 08:52 -43.58560 172.42196 1980 ft 137 kts 25°
2026-05-01 08:52 -43.57785 172.42914 1979 ft 133 kts 38°
2026-05-01 08:52 -43.57106 172.43693 1992 ft 122 kts 39°
2026-05-01 08:52 -43.56464 172.44441 1974 ft 120 kts 39°
2026-05-01 08:53 -43.55824 172.45186 1969 ft 121 kts 39°
2026-05-01 08:53 -43.55182 172.45931 1966 ft 121 kts 39°
2026-05-01 08:53 -43.54540 172.46677 1965 ft 121 kts 38°
2026-05-01 08:53 -43.53899 172.47423 1965 ft 121 kts 38°
2026-05-01 08:54 -43.53258 172.48169 1967 ft 121 kts 39°
2026-05-01 08:54 -43.52633 172.48942 1921 ft 121 kts 42°
2026-05-01 08:54 -43.52030 172.49744 1919 ft 121 kts 43°
2026-05-01 08:54 -43.51420 172.50563 1758 ft 122 kts 40°
2026-05-01 08:55 -43.50770 172.51311 1422 ft 124 kts 37°
2026-05-01 08:55 -43.50033 172.52043 861 ft 139 kts 34°
2026-05-01 08:55 -43.49240 172.52835 463 ft 140 kts 36°
2026-05-01 08:55 -43.48433 172.53618 486 ft 159 kts 35°
2026-05-01 08:56 -43.47558 172.54445 841 ft 144 kts 34°
2026-05-01 08:56 -43.46783 172.55162 1097 ft 128 kts 34°
2026-05-01 08:56 -43.46051 172.55839 1360 ft 126 kts 34°
2026-05-01 08:56 -43.45323 172.56512 1609 ft 126 kts 33°
2026-05-01 08:57 -43.44587 172.57193 1824 ft 132 kts 33°
2026-05-01 08:57 -43.43809 172.57911 1933 ft 136 kts 33°
2026-05-01 08:57 -43.43021 172.58638 1964 ft 137 kts 33°
2026-05-01 08:57 -43.42275 172.59450 1947 ft 138 kts 54°
2026-05-01 08:58 -43.42044 172.60712 1981 ft 139 kts 89°
2026-05-01 08:58 -43.42132 172.62046 1975 ft 141 kts 99°
2026-05-01 08:58 -43.42653 172.63164 2034 ft 146 kts 148°
2026-05-01 08:58 -43.43671 172.63396 2747 ft 154 kts 186°
2026-05-01 08:59 -43.44706 172.63162 3491 ft 147 kts 193°
2026-05-01 08:59 -43.45698 172.62861 3876 ft 145 kts 194°
2026-05-01 08:59 -43.46689 172.62549 3961 ft 146 kts 194°
2026-05-01 08:59 -43.47685 172.62232 3964 ft 147 kts 194°
2026-05-01 09:00 -43.48684 172.61913 3963 ft 148 kts 194°
2026-05-01 09:00 -43.49686 172.61593 3971 ft 148 kts 194°
2026-05-01 09:00 -43.50687 172.61275 3963 ft 148 kts 194°
2026-05-01 09:00 -43.51689 172.60956 3969 ft 148 kts 194°
2026-05-01 09:01 -43.52691 172.60638 3967 ft 148 kts 194°
2026-05-01 09:01 -43.53693 172.60317 3961 ft 148 kts 194°
2026-05-01 09:01 -43.54693 172.59999 3966 ft 148 kts 194°
2026-05-01 09:01 -43.55695 172.59683 3967 ft 148 kts 195°
2026-05-01 09:02 -43.56695 172.59366 3970 ft 147 kts 194°
2026-05-01 09:02 -43.57695 172.59050 3972 ft 147 kts 194°
2026-05-01 09:02 -43.58693 172.58731 3968 ft 147 kts 196°
2026-05-01 09:02 -43.59624 172.58168 3971 ft 146 kts 212°
2026-05-01 09:03 -43.60489 172.57438 3967 ft 146 kts 214°
2026-05-01 09:03 -43.61343 172.56681 3967 ft 146 kts 214°
2026-05-01 09:03 -43.62193 172.55921 3971 ft 146 kts 214°
2026-05-01 09:03 -43.63033 172.55169 3971 ft 146 kts 214°
2026-05-01 09:04 -43.63883 172.54410 3971 ft 146 kts 214°
2026-05-01 09:04 -43.64735 172.53650 3972 ft 146 kts 214°
2026-05-01 09:04 -43.65571 172.52868 3960 ft 145 kts 223°
2026-05-01 09:04 -43.65979 172.51665 3973 ft 140 kts 268°
2026-05-01 09:05 -43.65878 172.50327 3975 ft 141 kts 282°
2026-05-01 09:05 -43.65656 172.49004 3971 ft 142 kts 284°
2026-05-01 09:05 -43.65414 172.47682 3971 ft 142 kts 284°
2026-05-01 09:05 -43.65170 172.46359 3973 ft 142 kts 284°
2026-05-01 09:06 -43.64926 172.45036 3855 ft 144 kts 284°
2026-05-01 09:06 -43.64673 172.43655 3424 ft 150 kts 285°
2026-05-01 09:06 -43.64434 172.42296 3164 ft 140 kts 285°
2026-05-01 09:06 -43.64222 172.41024 2853 ft 134 kts 285°
2026-05-01 09:07 -43.64019 172.39765 2488 ft 135 kts 284°
2026-05-01 09:07 -43.63816 172.38494 2118 ft 136 kts 285°
2026-05-01 09:07 -43.63366 172.37460 1826 ft 122 kts 334°
2026-05-01 09:07 -43.62573 172.37417 1870 ft 117 kts 17°
2026-05-01 09:08 -43.61810 172.37839 1964 ft 119 kts 24°
2026-05-01 09:08 -43.61053 172.38323 1971 ft 120 kts 24°
2026-05-01 09:08 -43.60294 172.38815 1971 ft 121 kts 24°
2026-05-01 09:08 -43.59601 172.39455 1955 ft 122 kts 50°
2026-05-01 09:09 -43.59185 172.40476 1968 ft 123 kts 63°
2026-05-01 09:09 -43.58815 172.41535 1964 ft 122 kts 53°
2026-05-01 09:09 -43.58244 172.42389 1969 ft 121 kts 39°
2026-05-01 09:09 -43.57593 172.43130 1967 ft 121 kts 38°
2026-05-01 09:10 -43.56945 172.43876 1966 ft 121 kts 39°
2026-05-01 09:10 -43.56298 172.44628 1874 ft 122 kts 39°
2026-05-01 09:10 -43.55651 172.45383 1706 ft 121 kts 39°
2026-05-01 09:10 -43.55008 172.46130 1536 ft 120 kts 39°
2026-05-01 09:11 -43.54370 172.46870 1371 ft 120 kts 39°
2026-05-01 09:11 -43.53735 172.47607 1199 ft 119 kts 39°
2026-05-01 09:11 -43.53097 172.48347 1034 ft 119 kts 39°
2026-05-01 09:11 -43.52463 172.49084 856 ft 119 kts 40°
2026-05-01 09:12 -43.51824 172.49825 703 ft 120 kts 40°
2026-05-01 09:12 -43.51185 172.50566 540 ft 120 kts 39°
2026-05-01 09:12 -43.50546 172.51307 380 ft 120 kts 39°
2026-05-01 09:12 -43.49910 172.52044 224 ft 119 kts 39°
2026-05-01 09:13 -43.49290 172.52762 123 ft 105 kts 39°
2026-05-01 09:13 -43.48937 172.53166 114 ft 24 kts 39°
2026-05-01 09:13 -43.48872 172.53240 113 ft 26 kts 39°
2026-05-01 09:13 -43.48800 172.53371 114 ft 8 kts 132°
2026-05-01 09:14 -43.48825 172.53419 117 ft 10 kts 136°
2026-05-01 09:14 -43.48880 172.53501 112 ft 0 kts 130°
2026-05-01 09:14 -43.48880 172.53502 112 ft 1 kts 130°
2026-05-01 09:15 -43.48914 172.53557 111 ft 10 kts 130°
2026-05-01 09:15 -43.48961 172.53633 112 ft 11 kts 130°
2026-05-01 09:15 -43.48995 172.53687 112 ft 0 kts 130°
2026-05-01 09:15 -43.49000 172.53727 112 ft 0 kts 64°
2026-05-01 09:16 -43.48971 172.53764 112 ft 13 kts 39°
2026-05-01 09:16 -43.48945 172.53794 112 ft 0 kts 40°
2026-05-01 09:17 -43.48942 172.53798 112 ft 4 kts 40°
2026-05-01 09:17 -43.48939 172.53801 112 ft 0 kts 40°